Regional Weather Roundup
Issued by NWS

Home | Current Version | Previous Version | Text Only | Print | Product List | Glossary On
Versions: 1 2 3 4 5 6 7 8 9 10 11 12 13 14 15 16 17 18 19 20 21 22 23 24 25 26 27 28 29 30 31 32 33 34 35 36 37 38 39 40 41 42 43 44 45 46 47 48 49 50
943
ASUS44 KJAN 271703
RWRMS

MISSISSIPPI HOURLY WEATHER ROUNDUP
NATIONAL WEATHER SERVICE JACKSON MS
1200 PM CDT FRI MAR 27 2015

NOTE: "FAIR: INDICATES FEW OR NO CLOUDS BELOW 12,000 FEET WITH NO
SIGNIFICANT WEATHER AND/OR OBSTRUCTIONS TO VISIBILITY.

MSZ001>002-007>008-010>013-018>021-025>028-034>036-271800-
NORTHWEST MISSISSIPPI

CITY           SKY/WX    TMP DP  RH WIND       PRES   REMARKS
CLARKSDALE     FAIR      46  37  71 NW7       30.14R
CLEVELAND      CLOUDY    51  37  58 N3        30.11S
GREENWOOD      MOSUNNY   55  32  41 NE9       30.09F
GREENVILLE     CLOUDY    52  35  52 VRB3      30.11S
OLIVE BRANCH   CLOUDY    45  43  93 N12       30.11R
OXFORD         PTSUNNY   48  32  53 N12G18    30.10F
TUNICA         LGT RAIN  46  36  66 N10       30.12S
$$

MSZ003>006-009-014>017-022>024-029>033-037>039-271800-
NORTHEAST MISSISSIPPI

CITY           SKY/WX    TMP DP  RH WIND       PRES   REMARKS
COLUMBUS AFB   MOSUNNY   53  31  42 NW9G17    30.04S
CORINTH        CLOUDY    48  34  57 N9G20     30.06R
GOLDN TRIANGLE MOSUNNY   55  34  44 N14G21    30.05S
STARKVILLE     FAIR      54  34  47 N9        30.06F
TUPELO         PTSUNNY   51  32  48 N15G21    30.06S
$$

MSZ040-058-271800-
CENTRAL MISSISSIPPI

CITY           SKY/WX    TMP DP  RH WIND       PRES   REMARKS
JACKSON INTL   SUNNY     56  32  40 N10       30.08F
JACKSON HAWKNS SUNNY     55  33  43 NE6       30.08F
MERIDIAN KEY   SUNNY     56  30  37 N17       30.05S
MERIDIAN NAS   SUNNY     55  30  38 NW14G21   30.04R
RAYMOND        FAIR      55  50  82 NW6G13    30.09F
VICKSBURG      SUNNY     56  38  50 NE6       30.12F
$$

MSZ059>079-271800-
SOUTH MISSISSIPPI

CITY           SKY/WX    TMP DP  RH WIND       PRES   REMARKS
BROOKHAVEN     FAIR      57  39  51 NW13      30.10S
HATTIESBURG    SUNNY     60  33  36 N17G23    30.07R
MCCOMB         SUNNY     60  33  36 N15       30.08F
NATCHEZ        SUNNY     57  34  41 NE8       30.11F
PINE BELT      SUNNY     59  30  33 N14G20    30.07S
$$

MSZ080>082-271800-
COASTAL MISSISSIPPI

CITY           SKY/WX    TMP DP  RH WIND       PRES   REMARKS
BAY ST LOUIS   SUNNY     61  30  31 N12       30.06R
BILOXI         SUNNY     63  38  39 NW10      30.02S
PASCAGOULA     SUNNY     62  38  40 NW10G22   30.02S
GULFPORT       SUNNY     63  35  35 N16G22    30.03S
$$



USA.gov is the U.S. government's official web portal to all federal, state and local government web resources and services.